,,Stat5,,Stat1,,Stat2,,Stat3,,Stat4,,Wind1,,Wind1,
time,status,PA1M_AVG,status,PR1M_SUM,status,RH1M_AVG,status,SR1M_AVG,status,TA1M_AVG,status,W1dAve1m,status,W1sAve1m,
2003-08-26, 00:00:00,VALID,918.891,VALID,0,VALID,99.3708,VALID,0,VALID,18.9242,VALID,108,VALID,0.311883,
2003-08-26, 00:01:00,VALID,918.868,VALID,0,VALID,99.3784,VALID,0.0169808,VALID,18.911,VALID,108,VALID,0.341463,
2003-08-26, 00:02:00,VALID,918.858,VALID,0,VALID,99.3365,VALID,0.0339617,VALID,18.8684,VALID,116,VALID,0.429893,
2003-08-26, 00:03:00,VALID,918.855,VALID,0,VALID,99.4382,VALID,0.0679233,VALID,18.8458,VALID,136,VALID,0.629241,
2003-08-26, 00:04:00,VALID,918.851,VALID,0,VALID,99.5463,VALID,0.0339617,VALID,18.8661,VALID,136,VALID,0.505912,
2003-08-26, 00:05:00,VALID,918.846,VALID,0,VALID,99.5997,VALID,0.0509425,VALID,18.8718,VALID,130,VALID,0.588393,
2003-08-26, 00:06:00,VALID,918.842,VALID,0,VALID,99.6518,VALID,0.0509425,VALID,18.8815,VALID,133,VALID,0.746094,
2003-08-26, 00:07:00,VALID,918.829,VALID,0,VALID,99.6836,VALID,0.0169808,VALID,18.8939,VALID,136,VALID,0.632143,
2003-08-26, 00:08:00,VALID,918.854,VALID,0,VALID,99.6874,VALID,0,VALID,18.8979,VALID,126,VALID,0.876786,
2003-08-26, 00:09:00,VALID,918.86,VALID,0,VALID,99.6658,VALID,0.0339617,VALID,18.8817,VALID,120,VALID,1.25164,
2003-08-26, 00:10:00,VALID,918.882,VALID,0,VALID,99.6887,VALID,0,VALID,18.8792,VALID,128,VALID,1.29071,
2003-08-26, 00:11:00,VALID,918.914,VALID,0,VALID,99.7294,VALID,0,VALID,18.8691,VALID,121,VALID,1.34293,
2003-08-26, 00:12:00,VALID,918.933,VALID,0,VALID,99.7625,VALID,0.0339617,VALID,18.8663,VALID,115,VALID,1.20207,
2003-08-26, 00:13:00,VALID,918.948,VALID,0,VALID,99.8019,VALID,0.0339617,VALID,18.8825,VALID,114,VALID,0.952303,
2003-08-26, 00:14:00,VALID,918.952,VALID,0,VALID,99.8362,VALID,0.0169808,VALID,18.8723,VALID,121,VALID,1.15925,
2003-08-26, 00:15:00,VALID,918.959,VALID,0,VALID,99.8426,VALID,0,VALID,18.876,VALID,88,VALID,1.0699,
2003-08-26, 00:16:00,VALID,918.941,VALID,0,VALID,99.8515,VALID,0.0169808,VALID,18.8534,VALID,111,VALID,0.92652,
2003-08-26, 00:17:00,VALID,918.927,VALID,0,VALID,99.8807,VALID,0,VALID,18.8529,VALID,105,VALID,1.15203,
2003-08-26, 00:18:00,VALID,918.903,VALID,0,VALID,99.9265,VALID,0,VALID,18.8661,VALID,111,VALID,1.14431,
2003-08-26, 00:19:00,VALID,918.865,VALID,0,VALID,99.9557,VALID,0,VALID,18.8817,VALID,104,VALID,1.24194,
2003-08-26, 00:20:00,VALID,918.841,VALID,0,VALID,99.9761,VALID,0.0339617,VALID,18.8914,VALID,88,VALID,1.1597,
2003-08-26, 00:21:00,VALID,918.818,VALID,0,VALID,99.9883,VALID,0.0169808,VALID,18.8914,VALID,91,VALID,0.901843,
2003-08-26, 00:22:00,VALID,918.81,VALID,0,VALID,99.9911,VALID,0.0169808,VALID,18.8949,VALID,92,VALID,0.816817,
2003-08-26, 00:23:00,VALID,918.815,VALID,0,VALID,99.9957,VALID,0,VALID,18.8981,VALID,99,VALID,0.944311,
2003-08-26, 00:24:00,VALID,918.808,VALID,0,VALID,100,VALID,0.0509425,VALID,18.8817,VALID,93,VALID,0.917146,
2003-08-26, 00:25:00,VALID,918.774,VALID,0,VALID,99.999,VALID,0.0509425,VALID,18.8979,VALID,87,VALID,0.64591,
2003-08-26, 00:26:00,VALID,918.728,VALID,0,VALID,100,VALID,0.0169808,VALID,18.9014,VALID,97,VALID,0.892149,
2003-08-26, 00:27:00,VALID,918.672,VALID,0,VALID,100,VALID,0.0509425,VALID,18.9175,VALID,104,VALID,0.734575,
2003-08-26, 00:28:00,VALID,918.616,VALID,0,VALID,100,VALID,0.0339617,VALID,18.9302,VALID,117,VALID,0.648015,
2003-08-26, 00:29:00,VALID,918.566,VALID,0,VALID,100,VALID,0.0339617,VALID,18.9565,VALID,114,VALID,0.517103,
2003-08-26, 00:30:00,VALID,918.553,VALID,0,VALID,100,VALID,0.0509425,VALID,18.9659,VALID,124,VALID,0.506546,
2003-08-26, 00:31:00,VALID,918.52,VALID,0,VALID,100,VALID,0.0509425,VALID,18.9622,VALID,122,VALID,0.469002,
2003-08-26, 00:32:00,VALID,918.507,VALID,0,VALID,100,VALID,0.0679233,VALID,18.9558,VALID,122,VALID,0.313839,
2003-08-26, 00:33:00,VALID,918.5,VALID,0,VALID,100,VALID,0.0509425,VALID,18.9562,VALID,91,VALID,0.379934,
2003-08-26, 00:34:00,VALID,918.476,VALID,0,VALID,100,VALID,0.0849042,VALID,18.9528,VALID,59,VALID,0.24486,
2003-08-26, 00:35:00,VALID,918.459,VALID,0,VALID,100,VALID,0.0339617,VALID,18.924,VALID,47,VALID,0.609375,
2003-08-26, 00:36:00,VALID,918.448,VALID,0,VALID,100,VALID,0.0679233,VALID,18.9145,VALID,57,VALID,0.818201,
2003-08-26, 00:37:00,VALID,918.444,VALID,0,VALID,100,VALID,0.0509425,VALID,18.921,VALID,57,VALID,0.878289,
2003-08-26, 00:38:00,VALID,918.432,VALID,0,VALID,100,VALID,0.0509425,VALID,18.8949,VALID,50,VALID,1.04948,
2003-08-26, 00:39:00,VALID,918.42,VALID,0,VALID,100,VALID,0.0339617,VALID,18.8817,VALID,49,VALID,1.03742,
2003-08-26, 00:40:00,VALID,918.395,VALID,0,VALID,100,VALID,0.0339617,VALID,18.8721,VALID,48,VALID,0.907306,
2003-08-26, 00:41:00,VALID,918.381,VALID,0,VALID,100,VALID,-0.0849042,VALID,18.9095,VALID,48,VALID,0.666596,
2003-08-26, 00:42:00,VALID,918.357,VALID,0,VALID,100,VALID,-0.101885,VALID,18.9355,VALID,48,VALID,0.503038,
2003-08-26, 00:43:00,VALID,918.344,VALID,0,VALID,100,VALID,-0.101885,VALID,18.9475,VALID,48,VALID,0.323337,
2003-08-26, 00:44:00,VALID,918.332,VALID,0,VALID,100,VALID,-0.0679233,VALID,18.9579,VALID,48,VALID,0.0238971,
2003-08-26, 00:45:00,VALID,918.333,VALID,0,VALID,100,VALID,-0.101885,VALID,18.9515,VALID,48,VALID,0.0811298,
2003-08-26, 00:46:00,VALID,918.328,VALID,0,VALID,100,VALID,-0.0509425,VALID,18.948,VALID,69,VALID,0.395354,
2003-08-26, 00:47:00,VALID,918.344,VALID,0,VALID,100,VALID,-0.101885,VALID,18.9448,VALID,107,VALID,0.348357,
2003-08-26, 00:48:00,VALID,918.334,VALID,0,VALID,100,VALID,-0.101885,VALID,18.9351,VALID,133,VALID,0.543174,
2003-08-26, 00:49:00,VALID,918.332,VALID,0,VALID,100,VALID,-0.101885,VALID,18.9448,VALID,129,VALID,0.747013,
2003-08-26, 00:50:00,VALID,918.33,VALID,0,VALID,99.999,VALID,-0.101885,VALID,18.9517,VALID,130,VALID,0.9375,
2003-08-26, 00:51:00,VALID,918.333,VALID,0,VALID,99.9954,VALID,-0.0849042,VALID,18.9512,VALID,147,VALID,1.40304,
2003-08-26, 00:52:00,VALID,918.346,VALID,0,VALID,100,VALID,-0.0849042,VALID,18.9579,VALID,145,VALID,1.27872,
2003-08-26, 00:53:00,VALID,918.352,VALID,0,VALID,100,VALID,-0.0679233,VALID,18.9609,VALID,127,VALID,0.637035,
2003-08-26, 00:54:00,VALID,918.367,VALID,0,VALID,99.9906,VALID,-0.101885,VALID,18.9574,VALID,117,VALID,0.998522,
2003-08-26, 00:55:00,VALID,918.362,VALID,0,VALID,99.9908,VALID,-0.101885,VALID,18.9482,VALID,103,VALID,1.08443,
2003-08-26, 00:56:00,VALID,918.35,VALID,0,VALID,99.9964,VALID,-0.0169808,VALID,18.9535,VALID,91,VALID,0.852009,
2003-08-26, 00:57:00,VALID,918.32,VALID,0,VALID,99.9964,VALID,0,VALID,18.9498,VALID,104,VALID,0.908717,
2003-08-26, 00:58:00,VALID,918.298,VALID,0,VALID,100,VALID,0,VALID,18.95,VALID,98,VALID,0.983758,
2003-08-26, 00:59:00,VALID,918.267,VALID,0,VALID,100,VALID,0,VALID,18.9662,VALID,115,VALID,0.979646,
2003-08-26, 01:00:00,VALID,918.238,VALID,0,VALID,99.999,VALID,0,VALID,18.9724,VALID,121,VALID,1.0568,
2003-08-26, 01:01:00,VALID,918.225,VALID,0,VALID,99.9967,VALID,0,VALID,18.9821,VALID,118,VALID,0.923314,
2003-08-26, 01:02:00,VALID,918.219,VALID,0,VALID,99.9964,VALID,0,VALID,18.995,VALID,143,VALID,0.61238,
2003-08-26, 01:03:00,VALID,918.211,VALID,0,VALID,99.9934,VALID,0,VALID,19.0111,VALID,131,VALID,0.885074,
2003-08-26, 01:04:00,VALID,918.203,VALID,0,VALID,99.985,VALID,0,VALID,19.0278,VALID,124,VALID,0.760769,
2003-08-26, 01:05:00,VALID,918.197,VALID,0,VALID,99.9774,VALID,0.0339617,VALID,19.034,VALID,121,VALID,0.773226,
2003-08-26, 01:06:00,VALID,918.184,VALID,0,VALID,99.9519,VALID,0,VALID,19.0335,VALID,123,VALID,0.698351,
2003-08-26, 01:07:00,VALID,918.163,VALID,0,VALID,99.9252,VALID,0.0169808,VALID,19.0531,VALID,122,VALID,0.659526,
2003-08-26, 01:08:00,VALID,918.135,VALID,0,VALID,99.8871,VALID,-0.0339617,VALID,19.0534,VALID,114,VALID,0.80193,
2003-08-26, 01:09:00,VALID,918.102,VALID,0,VALID,99.8388,VALID,0,VALID,19.0596,VALID,91,VALID,0.812901,
2003-08-26, 01:10:00,VALID,918.065,VALID,0,VALID,99.7688,VALID,0.0169808,VALID,19.0534,VALID,95,VALID,0.641653,
2003-08-26, 01:11:00,VALID,918.027,VALID,0,VALID,99.6328,VALID,0,VALID,19.0432,VALID,94,VALID,0.507011,
2003-08-26, 01:12:00,VALID,918.004,VALID,0,VALID,99.5183,VALID,0,VALID,19.0434,VALID,114,VALID,0.738076,
2003-08-26, 01:13:00,VALID,917.972,VALID,0,VALID,99.4369,VALID,0.0169808,VALID,19.0434,VALID,125,VALID,0.791131,
2003-08-26, 01:14:00,VALID,917.96,VALID,0,VALID,99.3619,VALID,0,VALID,19.063,VALID,117,VALID,0.601944,
2003-08-26, 01:15:00,VALID,917.957,VALID,0,VALID,99.2627,VALID,0.0339617,VALID,19.0626,VALID,137,VALID,0.641026,
2003-08-26, 01:16:00,VALID,917.964,VALID,0,VALID,99.1559,VALID,0.0169808,VALID,19.075,VALID,142,VALID,0.42652,
2003-08-26, 01:17:00,VALID,917.968,VALID,0,VALID,98.9881,VALID,0.0169808,VALID,19.0949,VALID,152,VALID,0.715372,
2003-08-26, 01:18:00,VALID,917.966,VALID,0,VALID,98.8316,VALID,0,VALID,19.0854,VALID,161,VALID,0.608108,
2003-08-26, 01:19:00,VALID,917.976,VALID,0,VALID,98.7197,VALID,0.0169808,VALID,19.0919,VALID,164,VALID,0.369708,
2003-08-26, 01:20:00,VALID,917.957,VALID,0,VALID,98.6307,VALID,0.0169808,VALID,19.0951,VALID,164,VALID,0,
2003-08-26, 01:21:00,VALID,917.95,VALID,0,VALID,98.5163,VALID,0.0169808,VALID,19.1177,VALID,164,VALID,0.0990954,
2003-08-26, 01:22:00,VALID,917.932,VALID,0,VALID,98.3802,VALID,0.0169808,VALID,19.0986,VALID,164,VALID,0.106908,
2003-08-26, 01:23:00,VALID,917.911,VALID,0,VALID,98.2849,VALID,0,VALID,19.0946,VALID,164,VALID,0.39412,
2003-08-26, 01:24:00,VALID,917.898,VALID,0,VALID,98.2009,VALID,0,VALID,19.0981,VALID,164,VALID,0.184966,
2003-08-26, 01:25:00,VALID,917.882,VALID,0,VALID,98.1412,VALID,0.0339617,VALID,19.0976,VALID,172,VALID,0.164063,
2003-08-26, 01:26:00,VALID,917.872,VALID,0,VALID,97.9873,VALID,0.0339617,VALID,19.0981,VALID,202,VALID,0.520232,
2003-08-26, 01:27:00,VALID,917.868,VALID,0,VALID,97.9326,VALID,0.0169808,VALID,19.0847,VALID,207,VALID,0.391036,
2003-08-26, 01:28:00,VALID,917.87,VALID,0,VALID,97.9123,VALID,0.0169808,VALID,19.0983,VALID,184,VALID,0.437711,
2003-08-26, 01:29:00,VALID,917.861,VALID,0,VALID,97.8665,VALID,0,VALID,19.1115,VALID,171,VALID,0.892525,
2003-08-26, 01:30:00,VALID,917.862,VALID,0,VALID,97.7927,VALID,0,VALID,19.102,VALID,170,VALID,1.10048,
2003-08-26, 01:31:00,VALID,917.835,VALID,0,VALID,97.7635,VALID,0.0169808,VALID,19.0856,VALID,171,VALID,1.10837,
2003-08-26, 01:32:00,VALID,917.838,VALID,0,VALID,97.8067,VALID,0.0169808,VALID,19.0658,VALID,169,VALID,0.821232,
2003-08-26, 01:33:00,VALID,917.815,VALID,0,VALID,97.85,VALID,0,VALID,19.0462,VALID,166,VALID,0.565905,
2003-08-26, 01:34:00,VALID,917.786,VALID,0,VALID,97.9492,VALID,0.0169808,VALID,19.0434,VALID,145,VALID,1.02488,
2003-08-26, 01:35:00,VALID,917.764,VALID,0,VALID,98.0801,VALID,0,VALID,19.0273,VALID,126,VALID,0.938502,
2003-08-26, 01:36:00,VALID,917.742,VALID,0,VALID,98.1577,VALID,0.0509425,VALID,19.0084,VALID,102,VALID,0.65111,
2003-08-26, 01:37:00,VALID,917.734,VALID,0,VALID,98.2162,VALID,0,VALID,18.9788,VALID,91,VALID,0.758732,
2003-08-26, 01:38:00,VALID,917.725,VALID,0,VALID,98.3459,VALID,0.0169808,VALID,18.9558,VALID,90,VALID,1.04668,
2003-08-26, 01:39:00,VALID,917.722,VALID,0,VALID,98.4692,VALID,0,VALID,18.9498,VALID,73,VALID,0.725561,
2003-08-26, 01:40:00,VALID,917.709,VALID,0,VALID,98.5074,VALID,0,VALID,18.9431,VALID,69,VALID,0.743454,
2003-08-26, 01:41:00,VALID,917.707,VALID,0,VALID,98.5557,VALID,0,VALID,18.9468,VALID,69,VALID,0.633446,
2003-08-26, 01:42:00,VALID,917.688,VALID,0,VALID,98.5481,VALID,0,VALID,18.9369,VALID,71,VALID,0.586149,
2003-08-26, 01:43:00,VALID,917.684,VALID,0,VALID,98.529,VALID,-0.0169808,VALID,18.9307,VALID,104,VALID,0.678427,
2003-08-26, 01:44:00,VALID,917.663,VALID,0,VALID,98.5684,VALID,0.0169808,VALID,18.9242,VALID,115,VALID,0.532812,
2003-08-26, 01:45:00,VALID,917.64,VALID,0,VALID,98.5595,VALID,0.0169808,VALID,18.9175,VALID,101,VALID,0.707031,
2003-08-26, 01:46:00,VALID,917.63,VALID,0,VALID,98.5239,VALID,0.0169808,VALID,18.9011,VALID,115,VALID,0.659745,
2003-08-26, 01:47:00,VALID,917.616,VALID,0,VALID,98.5659,VALID,0.0339617,VALID,18.9212,VALID,151,VALID,0.821957,
2003-08-26, 01:48:00,VALID,917.61,VALID,0,VALID,98.5532,VALID,0.0169808,VALID,18.9175,VALID,166,VALID,0.866554,
2003-08-26, 01:49:00,VALID,917.623,VALID,0,VALID,98.5532,VALID,0.0169808,VALID,18.911,VALID,181,VALID,0.69264,
2003-08-26, 01:50:00,VALID,917.639,VALID,0,VALID,98.5315,VALID,0,VALID,18.914,VALID,189,VALID,0.75641,
2003-08-26, 01:51:00,VALID,917.641,VALID,0,VALID,98.5659,VALID,0,VALID,18.9205,VALID,171,VALID,1.02714,
2003-08-26, 01:52:00,VALID,917.637,VALID,0,VALID,98.5811,VALID,0.0169808,VALID,18.9175,VALID,172,VALID,1.08256,
2003-08-26, 01:53:00,VALID,917.659,VALID,0,VALID,98.6358,VALID,0.0169808,VALID,18.918,VALID,178,VALID,0.872889,
2003-08-26, 01:54:00,VALID,917.669,VALID,0,VALID,98.7274,VALID,0.0169808,VALID,18.9051,VALID,183,VALID,1.01194,
2003-08-26, 01:55:00,VALID,917.68,VALID,0,VALID,98.8075,VALID,0.0339617,VALID,18.8949,VALID,171,VALID,0.733115,
2003-08-26, 01:56:00,VALID,917.688,VALID,0,VALID,98.8482,VALID,-0.0679233,VALID,18.8864,VALID,165,VALID,0.309972,
2003-08-26, 01:57:00,VALID,917.686,VALID,0,VALID,98.9003,VALID,-0.0849042,VALID,18.8834,VALID,159,VALID,0.266226,
2003-08-26, 01:58:00,VALID,917.677,VALID,0,VALID,98.9512,VALID,-0.0679233,VALID,18.8802,VALID,147,VALID,0.568668,
2003-08-26, 01:59:00,VALID,917.664,VALID,0,VALID,98.9779,VALID,-0.101885,VALID,18.8804,VALID,128,VALID,0.206931,
2003-08-26, 02:00:00,VALID,917.657,VALID,0,VALID,99.0135,VALID,-0.118866,VALID,18.8839,VALID,85,VALID,0.315584,
2003-08-26, 02:01:00,VALID,917.636,VALID,0,VALID,99.0631,VALID,-0.101885,VALID,18.8705,VALID,48,VALID,0.678539,
2003-08-26, 02:02:00,VALID,917.617,VALID,0,VALID,99.0109,VALID,-0.101885,VALID,18.8804,VALID,50,VALID,0.735899,
2003-08-26, 02:03:00,VALID,917.613,VALID,0,VALID,98.9385,VALID,-0.0849042,VALID,18.8613,VALID,59,VALID,0.924679,
2003-08-26, 02:04:00,VALID,917.602,VALID,0,VALID,98.9804,VALID,-0.0849042,VALID,18.8317,VALID,65,VALID,1.06039,
2003-08-26, 02:05:00,VALID,917.611,VALID,0,VALID,99.0326,VALID,-0.0509425,VALID,18.8188,VALID,75,VALID,1.0359,
2003-08-26, 02:06:00,VALID,917.618,VALID,0,VALID,99.0186,VALID,-0.118866,VALID,18.8126,VALID,78,VALID,1.27998,
2003-08-26, 02:07:00,VALID,917.64,VALID,0,VALID,99.002,VALID,-0.0849042,VALID,18.7835,VALID,71,VALID,1.375,
2003-08-26, 02:08:00,VALID,917.651,VALID,0,VALID,99.0453,VALID,-0.101885,VALID,18.7672,VALID,62,VALID,1.0558,
2003-08-26, 02:09:00,VALID,917.669,VALID,0,VALID,99.0427,VALID,-0.0679233,VALID,18.7771,VALID,92,VALID,1.29996,
2003-08-26, 02:10:00,VALID,917.66,VALID,0,VALID,99.0046,VALID,-0.101885,VALID,18.7771,VALID,65,VALID,1.24404,
2003-08-26, 02:11:00,VALID,917.673,VALID,0,VALID,98.9652,VALID,-0.0339617,VALID,18.795,VALID,67,VALID,1.08717,
2003-08-26, 02:12:00,VALID,917.652,VALID,0,VALID,98.9296,VALID,0.0339617,VALID,18.795,VALID,77,VALID,1.60262,
2003-08-26, 02:13:00,VALID,917.628,VALID,0,VALID,98.9334,VALID,0.0169808,VALID,18.7883,VALID,80,VALID,0.896793,
2003-08-26, 02:14:00,VALID,917.608,VALID,0,VALID,98.9664,VALID,0,VALID,18.7888,VALID,110,VALID,0.89403,
2003-08-26, 02:15:00,VALID,917.576,VALID,0,VALID,98.9944,VALID,0.0339617,VALID,18.772,VALID,108,VALID,0.978824,
2003-08-26, 02:16:00,VALID,917.558,VALID,0,VALID,99.0249,VALID,0.0679233,VALID,18.7655,VALID,107,VALID,0.902449,
2003-08-26, 02:17:00,VALID,917.529,VALID,0,VALID,99.0415,VALID,0,VALID,18.7563,VALID,115,VALID,1.02513,
2003-08-26, 02:18:00,VALID,917.507,VALID,0,VALID,99.0669,VALID,0,VALID,18.7538,VALID,122,VALID,0.83941,
2003-08-26, 02:19:00,VALID,917.478,VALID,0,VALID,99.0885,VALID,0,VALID,18.7305,VALID,110,VALID,0.965474,
2003-08-26, 02:20:00,VALID,917.478,VALID,0,VALID,99.0631,VALID,0.0169808,VALID,18.7046,VALID,104,VALID,0.965993,
2003-08-26, 02:21:00,VALID,917.478,VALID,0,VALID,99.086,VALID,0,VALID,18.688,VALID,104,VALID,1.13301,
2003-08-26, 02:22:00,VALID,917.477,VALID,0,VALID,99.1585,VALID,0.0169808,VALID,18.6823,VALID,111,VALID,1.30572,
2003-08-26, 02:23:00,VALID,917.477,VALID,0,VALID,99.2182,VALID,0,VALID,18.676,VALID,115,VALID,1.28506,
2003-08-26, 02:24:00,VALID,917.472,VALID,0,VALID,99.278,VALID,0,VALID,18.6823,VALID,116,VALID,1.27961,
2003-08-26, 02:25:00,VALID,917.483,VALID,0,VALID,99.2958,VALID,0,VALID,18.6855,VALID,113,VALID,1.32904,
2003-08-26, 02:26:00,VALID,917.476,VALID,0,VALID,99.2869,VALID,-0.0169808,VALID,18.6825,VALID,104,VALID,0.995427,
2003-08-26, 02:27:00,VALID,917.492,VALID,0,VALID,99.2462,VALID,0,VALID,18.6758,VALID,101,VALID,0.904848,
2003-08-26, 02:28:00,VALID,917.482,VALID,0,VALID,99.2704,VALID,-0.0169808,VALID,18.6627,VALID,108,VALID,1.24345,
2003-08-26, 02:29:00,VALID,917.479,VALID,0,VALID,99.1737,VALID,0.0169808,VALID,18.6788,VALID,106,VALID,1.1231,
2003-08-26, 02:30:00,VALID,917.474,VALID,0,VALID,99.0618,VALID,0.0339617,VALID,18.6954,VALID,115,VALID,1.08868,
2003-08-26, 02:31:00,VALID,917.453,VALID,0,VALID,98.9626,VALID,0,VALID,18.6982,VALID,124,VALID,1.00403,
2003-08-26, 02:32:00,VALID,917.438,VALID,0,VALID,98.8571,VALID,0.0339617,VALID,18.7111,VALID,108,VALID,1.1529,
2003-08-26, 02:33:00,VALID,917.405,VALID,0,VALID,98.7287,VALID,0.0509425,VALID,18.7141,VALID,103,VALID,1.01727,
2003-08-26, 02:34:00,VALID,917.38,VALID,0,VALID,98.6435,VALID,0.0339617,VALID,18.7141,VALID,116,VALID,1.18195,
2003-08-26, 02:35:00,VALID,917.358,VALID,0,VALID,98.6231,VALID,0.0509425,VALID,18.7277,VALID,104,VALID,1.19942,
2003-08-26, 02:36:00,VALID,917.33,VALID,0,VALID,98.5277,VALID,0.0169808,VALID,18.7595,VALID,97,VALID,1.16364,
2003-08-26, 02:37:00,VALID,917.325,VALID,0,VALID,98.3599,VALID,0.0169808,VALID,18.7724,VALID,77,VALID,0.82977,
2003-08-26, 02:38:00,VALID,917.297,VALID,0,VALID,98.1094,VALID,-0.0169808,VALID,18.7662,VALID,60,VALID,0.797877,
2003-08-26, 02:39:00,VALID,917.293,VALID,0,VALID,97.9212,VALID,0,VALID,18.7245,VALID,46,VALID,1.07874,
2003-08-26, 02:40:00,VALID,917.286,VALID,0,VALID,97.9759,VALID,0,VALID,18.7049,VALID,58,VALID,0.870144,
2003-08-26, 02:41:00,VALID,917.272,VALID,0,VALID,98.0585,VALID,-0.0169808,VALID,18.6954,VALID,57,VALID,0.811867,
2003-08-26, 02:42:00,VALID,917.25,VALID,0,VALID,98.159,VALID,0.0169808,VALID,18.676,VALID,73,VALID,0.868056,
2003-08-26, 02:43:00,VALID,917.233,VALID,0,VALID,98.2251,VALID,0.0339617,VALID,18.6756,VALID,86,VALID,0.706149,
2003-08-26, 02:44:00,VALID,917.203,VALID,0,VALID,98.2098,VALID,0,VALID,18.6892,VALID,104,VALID,0.464614,
2003-08-26, 02:45:00,VALID,917.187,VALID,0,VALID,98.2327,VALID,0,VALID,18.6696,VALID,106,VALID,0.169671,
2003-08-26, 02:46:00,VALID,917.166,VALID,0,VALID,98.2365,VALID,0,VALID,18.6659,VALID,106,VALID,0.0472862,
2003-08-26, 02:47:00,VALID,917.141,VALID,0,VALID,98.0661,VALID,0.0169808,VALID,18.6334,VALID,106,VALID,0,
2003-08-26, 02:48:00,VALID,917.116,VALID,0,VALID,97.9733,VALID,0,VALID,18.6219,VALID,106,VALID,0.127878,
2003-08-26, 02:49:00,VALID,917.08,VALID,0,VALID,97.9937,VALID,-0.0169808,VALID,18.5822,VALID,106,VALID,0.230009,
2003-08-26, 02:50:00,VALID,917.046,VALID,0,VALID,97.8678,VALID,-0.0169808,VALID,18.5337,VALID,106,VALID,0.289253,
2003-08-26, 02:51:00,VALID,917.024,VALID,0,VALID,97.9949,VALID,0.0169808,VALID,18.5111,VALID,36,VALID,0.358173,
2003-08-26, 02:52:00,VALID,916.995,VALID,0,VALID,98.2556,VALID,0.0169808,VALID,18.5111,VALID,3,VALID,0.56609,
2003-08-26, 02:53:00,VALID,916.979,VALID,0,VALID,98.3866,VALID,0.0169808,VALID,18.5275,VALID,304,VALID,0.56799,
2003-08-26, 02:54:00,VALID,916.986,VALID,0,VALID,98.4858,VALID,0.0169808,VALID,18.5432,VALID,299,VALID,0.375,
2003-08-26, 02:55:00,VALID,916.964,VALID,0,VALID,98.6015,VALID,0.0169808,VALID,18.5695,VALID,299,VALID,0.289567,
2003-08-26, 02:56:00,VALID,916.985,VALID,0,VALID,98.6854,VALID,-0.0169808,VALID,18.5829,VALID,299,VALID,0.0122768,
2003-08-26, 02:57:00,VALID,916.981,VALID,0,VALID,98.6689,VALID,-0.0679233,VALID,18.5833,VALID,299,VALID,0.0230263,
2003-08-26, 02:58:00,VALID,916.968,VALID,0,VALID,98.5354,VALID,-0.0339617,VALID,18.5575,VALID,299,VALID,0.0830592,
2003-08-26, 02:59:00,VALID,916.95,VALID,0,VALID,98.5633,VALID,-0.0169808,VALID,18.5411,VALID,299,VALID,0.0799753,
2003-08-26, 03:00:00,VALID,916.922,VALID,0,VALID,98.6078,VALID,-0.0509425,VALID,18.5252,VALID,299,VALID,0.36022,
2003-08-26, 03:01:00,VALID,916.9,VALID,0,VALID,98.6625,VALID,-0.0679233,VALID,18.5248,VALID,299,VALID,0.426604,
2003-08-26, 03:02:00,VALID,916.885,VALID,0,VALID,98.7401,VALID,-0.0849042,VALID,18.5183,VALID,299,VALID,0.449319,
2003-08-26, 03:03:00,VALID,916.884,VALID,0,VALID,98.8533,VALID,-0.0849042,VALID,18.5183,VALID,299,VALID,0.391653,
2003-08-26, 03:04:00,VALID,916.879,VALID,0,VALID,98.9703,VALID,-0.0679233,VALID,18.5446,VALID,299,VALID,0.255701,
2003-08-26, 03:05:00,VALID,916.882,VALID,0,VALID,99.0694,VALID,-0.0509425,VALID,18.5444,VALID,299,VALID,0.0570101,
2003-08-26, 03:06:00,VALID,916.87,VALID,0,VALID,99.1381,VALID,-0.0679233,VALID,18.5476,VALID,299,VALID,0.123047,
2003-08-26, 03:07:00,VALID,916.845,VALID,0,VALID,99.2322,VALID,-0.0509425,VALID,18.5674,VALID,285,VALID,0.36744,
2003-08-26, 03:08:00,VALID,916.812,VALID,0,VALID,99.2843,VALID,-0.0169808,VALID,18.561,VALID,284,VALID,0.263787,
2003-08-26, 03:09:00,VALID,916.782,VALID,0,VALID,99.325,VALID,-0.0339617,VALID,18.5637,VALID,284,VALID,0.201122,
2003-08-26, 03:10:00,VALID,916.75,VALID,0,VALID,99.3288,VALID,-0.0849042,VALID,18.5476,VALID,284,VALID,0.0522204,
2003-08-26, 03:11:00,VALID,916.721,VALID,0,VALID,99.3797,VALID,0,VALID,18.5531,VALID,284,VALID,0.0438702,
2003-08-26, 03:12:00,VALID,916.691,VALID,0,VALID,99.3962,VALID,0.0339617,VALID,18.543,VALID,308,VALID,0.357319,
2003-08-26, 03:13:00,VALID,916.675,VALID,0,VALID,99.3327,VALID,0.0339617,VALID,18.5337,VALID,351,VALID,0.258042,
2003-08-26, 03:14:00,VALID,916.664,VALID,0,VALID,99.3683,VALID,0,VALID,18.5077,VALID,351,VALID,0.287157,
2003-08-26, 03:15:00,VALID,916.655,VALID,0,VALID,99.3416,VALID,0.0679233,VALID,18.4982,VALID,351,VALID,0.145032,
2003-08-26, 03:16:00,VALID,916.644,VALID,0,VALID,99.325,VALID,0.0509425,VALID,18.4754,VALID,351,VALID,0.000844595,
2003-08-26, 03:17:00,VALID,916.643,VALID,0,VALID,99.3619,VALID,0.0509425,VALID,18.4789,VALID,351,VALID,0.287584,
2003-08-26, 03:18:00,VALID,916.646,VALID,0,VALID,99.3365,VALID,0.0679233,VALID,18.4563,VALID,351,VALID,0.20397,
2003-08-26, 03:19:00,VALID,916.651,VALID,0,VALID,99.3123,VALID,0.0339617,VALID,18.4233,VALID,351,VALID,0.0355343,
2003-08-26, 03:20:00,VALID,916.647,VALID,0,VALID,99.2144,VALID,0.0679233,VALID,18.4048,VALID,351,VALID,0.000223214,
2003-08-26, 03:21:00,VALID,916.647,VALID,0,VALID,99.1801,VALID,0.0339617,VALID,18.3559,VALID,44,VALID,0.537418,
2003-08-26, 03:22:00,VALID,916.659,VALID,0,VALID,99.292,VALID,0.0509425,VALID,18.3327,VALID,85,VALID,0.807771,
2003-08-26, 03:23:00,VALID,916.64,VALID,0,VALID,99.4865,VALID,0.0509425,VALID,18.3396,VALID,92,VALID,0.840461,
2003-08-26, 03:24:00,VALID,916.629,VALID,0,VALID,99.5704,VALID,0.0339617,VALID,18.3622,VALID,103,VALID,0.963894,
2003-08-26, 03:25:00,VALID,916.612,VALID,0,VALID,99.5043,VALID,0.0509425,VALID,18.3656,VALID,87,VALID,1.01295,
2003-08-26, 03:26:00,VALID,916.601,VALID,0,VALID,99.4408,VALID,0.101885,VALID,18.3336,VALID,84,VALID,1.03225,
2003-08-26, 03:27:00,VALID,916.58,VALID,0,VALID,99.3975,VALID,0.0339617,VALID,18.2916,VALID,91,VALID,1.23869,
2003-08-26, 03:28:00,VALID,916.583,VALID,0,VALID,99.3263,VALID,0.0679233,VALID,18.2561,VALID,73,VALID,1.37669,
2003-08-26, 03:29:00,VALID,916.562,VALID,0,VALID,99.2589,VALID,0.0339617,VALID,18.2243,VALID,79,VALID,1.05828,
2003-08-26, 03:30:00,VALID,916.556,VALID,0,VALID,99.2551,VALID,0.0169808,VALID,18.195,VALID,95,VALID,1.2576,
2003-08-26, 03:31:00,VALID,916.546,VALID,0,VALID,99.2818,VALID,0.0169808,VALID,18.1945,VALID,129,VALID,0.954385,
2003-08-26, 03:32:00,VALID,916.539,VALID,0,VALID,99.2564,VALID,0.0509425,VALID,18.2141,VALID,141,VALID,1.13879,
2003-08-26, 03:33:00,VALID,916.526,VALID,0,VALID,99.2437,VALID,0.0169808,VALID,18.2137,VALID,150,VALID,1.13301,
2003-08-26, 03:34:00,VALID,916.516,VALID,0,VALID,99.2233,VALID,0.0509425,VALID,18.2238,VALID,148,VALID,1.1176,
2003-08-26, 03:35:00,VALID,916.51,VALID,0,VALID,99.2106,VALID,0.0679233,VALID,18.2174,VALID,135,VALID,0.893429,
2003-08-26, 03:36:00,VALID,916.516,VALID,0,VALID,99.2182,VALID,0.0849042,VALID,18.2208,VALID,132,VALID,0.80736,